Prague, Czech Republic

10:45 PM CEST on June 22, 2017 (GMT +0200)
Ruzyne

Weather History for LKPR - October, 2011

Change the Weather History Date:

Saturday, October 15, 2011

  Actual Average Record
Temperature  
Mean Temperature 38 °F -  
Max Temperature 49 °F 50 °F 73 °F (2000)
Min Temperature 28 °F 36 °F 28 °F (2011)
Degree Days  
Heating Degree Days 26    
Moisture  
Dew Point 31 °F    
Average Humidity 78    
Maximum Humidity 100    
Minimum Humidity 48    
Precipitation  
Precipitation 0.00 in 0.04 in - ()
Sea Level Pressure  
Sea Level Pressure 30.51 in    
Wind  
Wind Speed 3 mph ()    
Max Wind Speed 7 mph    
Max Gust Speed -    
Visibility 5.2 miles    
Events Fog    
Averages and records for this station are not official NWS values.
T = Trace of Precipitation, MM = Missing Value Source: Averaged Metar Reports

Daily Weather History Graph

Daily Weather History Graph

Search for Another Location

Airport or City:

Trip Planner

Search our weather history database for the weather conditions in past years. The results will help you decide how hot, cold, wet, or windy it might be!

Date:

Astronomy

Oct. 15, 2011 Rise Set
Actual Time 7:24 AM CEST 6:12 PM CEST
Civil Twilight 6:51 AM CEST 6:45 PM CEST
Nautical Twilight 6:13 AM CEST 7:22 PM CEST
Astronomical Twilight 5:36 AM CEST 8:00 PM CEST
Moon 7:31 PM CEST (10/15) 10:56 AM CEST (10/15)
Length of Visible Light 11h 53m
Length of Day
10h 48m
Waning Gibbous, 90% of the Moon is Illuminated
Oct 15
Waning Gibbous
Oct 20
Last Quarter
Oct 26
New
Nov 2
First Quarter
Nov 10
Full

Hourly Weather History & Observations

Time (CEST) Temp. Windchill Dew Point Humidity Pressure Visibility Wind Dir Wind Speed Gust Speed Precip Events Conditions
12:00 AM 35.6 °F - 30.2 °F 81% 30.57 in - Variable 1.2 mph - N/A   Clear
12:30 AM 33.8 °F 30.8 °F 30.2 °F 87% 30.57 in - West 3.5 mph - N/A   Clear
1:00 AM 33.8 °F - 30.2 °F 87% 30.57 in - Calm Calm - N/A   Clear
1:30 AM 35.6 °F - 30.2 °F 81% 30.54 in - Calm Calm - N/A   Clear
2:00 AM 35 °F - 31 °F 78% 30.62 in 16 mi ESE 2.2 mph - -   Clear
2:00 AM 33.8 °F - 30.2 °F 87% 30.54 in - ESE 1.2 mph - N/A   Clear
2:30 AM 33.8 °F - 30.2 °F 87% 30.54 in - Variable 1.2 mph - N/A   Clear
3:00 AM 32.0 °F - 28.4 °F 87% 30.54 in - Variable 2.3 mph - N/A   Clear
3:30 AM 30.2 °F - 28.4 °F 93% 30.54 in - Variable 1.2 mph - N/A   Clear
4:00 AM 30.2 °F 26.7 °F 28.4 °F 93% 30.54 in - SW 3.5 mph - N/A   Clear
4:30 AM 30.2 °F - 30.2 °F 100% 30.54 in - Calm Calm - N/A   Clear
5:00 AM 32.0 °F - 30.2 °F 93% 30.54 in - West 2.3 mph - N/A   Clear
5:30 AM 30.2 °F - 28.4 °F 93% 30.54 in - NNW 1.2 mph - N/A   Clear
6:00 AM 30.2 °F - 30.2 °F 100% 30.54 in - Variable 1.2 mph - N/A   Clear
6:30 AM 32.0 °F - 30.2 °F 93% 30.51 in - Variable 1.2 mph - N/A   Clear
7:00 AM 32.0 °F - 30.2 °F 93% 30.51 in 4.3 mi ENE 2.3 mph - N/A   Unknown
7:09 AM 30.2 °F - 28.4 °F 93% 30.51 in 3.7 mi East 2.3 mph - N/A Fog Patches of Fog
7:30 AM 30.2 °F - 28.4 °F 93% 30.51 in 0.3 mi Variable 1.2 mph - N/A   Partly Cloudy
7:36 AM 28.4 °F - 28.4 °F 100% 30.51 in 1.6 mi Variable 1.2 mph - N/A Fog Patches of Fog
8:00 AM 28 °F - 27 °F 94% 30.61 in 2 mi West 2.2 mph - - Fog Light Fog
8:00 AM 28.4 °F 24.6 °F 26.6 °F 93% 30.51 in 1.6 mi WNW 3.5 mph - N/A Fog Patches of Fog
8:16 AM 28.4 °F - 28.4 °F 100% 30.54 in 2.2 mi West 2.3 mph - N/A   Partly Cloudy
8:30 AM 30.2 °F - 28.4 °F 93% 30.54 in 2.8 mi West 2.3 mph - N/A   Partly Cloudy
9:00 AM 32.0 °F - 30.2 °F 93% 30.54 in 2.8 mi West 2.3 mph - N/A   Mist
9:30 AM 35.6 °F - 33.8 °F 93% 30.54 in 2.8 mi Variable 1.2 mph - N/A   Mist
10:00 AM 39.2 °F 35.9 °F 33.8 °F 81% 30.54 in 4.3 mi East 4.6 mph - N/A   Unknown
10:30 AM 41.0 °F - 33.8 °F 76% 30.54 in - Variable 2.3 mph - N/A   Clear
11:00 AM 42.8 °F 41.1 °F 33.8 °F 70% 30.54 in - ESE 3.5 mph - N/A   Clear
11:30 AM 44.6 °F 41.4 °F 33.8 °F 66% 30.54 in - ESE 5.8 mph - N/A   Clear
12:00 PM 44.6 °F 41.4 °F 32.0 °F 61% 30.54 in - ESE 5.8 mph - N/A   Clear
12:30 PM 46.4 °F 42.9 °F 32.0 °F 57% 30.51 in - ESE 6.9 mph - N/A   Clear
1:00 PM 46.4 °F 42.9 °F 32.0 °F 57% 30.51 in - ESE 6.9 mph - N/A   Clear
1:30 PM 46.4 °F 42.9 °F 33.8 °F 62% 30.51 in - SE 6.9 mph - N/A   Clear
2:00 PM 47 °F - 33 °F 48% 30.53 in 16 mi East 6.7 mph - -   Partly Cloudy
2:00 PM 48.2 °F - 33.8 °F 58% 30.51 in - East 5.8 mph - N/A   Clear
2:30 PM 48.2 °F - 33.8 °F 58% 30.48 in - ENE 3.5 mph - N/A   Clear
3:00 PM 48.2 °F - 33.8 °F 58% 30.48 in - NE 2.3 mph - N/A   Clear
3:30 PM 48.2 °F - 32.0 °F 54% 30.48 in - ENE 3.5 mph - N/A   Clear
4:00 PM 48.2 °F - 33.8 °F 58% 30.48 in - East 5.8 mph - N/A   Clear
4:30 PM 48.2 °F - 32.0 °F 54% 30.48 in - ENE 4.6 mph - N/A   Clear
5:00 PM 48.2 °F - 32.0 °F 54% 30.48 in - ENE 5.8 mph - N/A   Clear
5:30 PM 46.4 °F 42.9 °F 32.0 °F 57% 30.45 in - NE 6.9 mph - N/A   Clear
6:00 PM 44.6 °F 41.4 °F 32.0 °F 61% 30.45 in - NE 5.8 mph - N/A   Clear
6:30 PM 41.0 °F 38.0 °F 32.0 °F 70% 30.45 in - East 4.6 mph - N/A   Clear
7:00 PM 39.2 °F 35.9 °F 32.0 °F 75% 30.45 in - ENE 4.6 mph - N/A   Clear
7:30 PM 41.0 °F 37.1 °F 32.0 °F 70% 30.48 in - East 5.8 mph - N/A   Clear
8:00 PM 40 °F - 32 °F 65% 30.52 in 12 mi East 6.7 mph - -   Clear
8:00 PM 41.0 °F 37.1 °F 32.0 °F 70% 30.48 in - East 5.8 mph - N/A   Clear
8:30 PM 41.0 °F 38.0 °F 32.0 °F 70% 30.45 in - East 4.6 mph - N/A   Clear
9:00 PM 39.2 °F - 32.0 °F 75% 30.45 in - ESE 2.3 mph - N/A   Clear
9:30 PM 39.2 °F - 32.0 °F 75% 30.45 in - SE 2.3 mph - N/A   Clear
10:00 PM 39.2 °F 37.0 °F 32.0 °F 75% 30.45 in - East 3.5 mph - N/A   Clear
10:30 PM 39.2 °F 35.0 °F 33.8 °F 81% 30.45 in - East 5.8 mph - N/A   Clear
11:00 PM 37.4 °F 34.9 °F 32.0 °F 81% 30.45 in - ESE 3.5 mph - N/A   Clear
11:30 PM 37.4 °F - 32.0 °F 81% 30.45 in - Variable 1.2 mph - N/A   Clear